Hourly Data Report for June 04, 2021

CARIBOU POINT (AUT)
NOVA SCOTIA
Current Station Operator: ECCC - MSC

45°46'00.000" N
62°41'00.000" W
2.40 m
8200774
71415
WBK

Download Data

Hourly Data (June 2021)
Hourly Data Report for June 4, 2021
TIME
LST
Temp Definition
°C
Dew Point Definition
°C
Rel Hum Definition
%
Precip. Amount Definition
mm

Wind Dir Definition
10's deg

Wind Spd Definition
km/h
Visibility Definition
km
Stn Press Definition
kPa
Hmdx Definition


Wind Chill Definition


Weather Definition


00:00 16.1 13.0 82 0.0 19 24   101.28     LegendNANA
01:00 15.3 13.5 89 0.0 19 26   101.16     LegendNANA
02:00 15.1 14.3 95 0.6 19 23   101.01     LegendNANA
03:00 14.6 14.0 96 6.7 20 16   100.94     LegendNANA
04:00 14.7 14.1 96 3.7 21 12   100.90     LegendNANA
05:00 14.7 14.0 96 0.6 21 13   100.83     LegendNANA
06:00 15.0 14.4 96 0.9 20 11   100.79     LegendNANA
07:00 15.5 14.7 95 0.2 22 11   100.77     LegendNANA
08:00 16.2 15.3 94 0.0 21 10   100.79     LegendNANA
09:00 17.0 15.7 92 0.0 21 14   100.74     LegendNANA
10:00 17.7 16.6 94 0.4 23 13   100.75     LegendNANA
11:00 19.8 17.8 88 0.3 22 14   100.71     LegendNANA
12:00 20.7 17.1 80 0.0 24 12   100.71 26   LegendNANA
13:00 20.5 16.5 78 0.0 24 13   100.73 25   LegendNANA
14:00 21.7 17.1 75 0.0 24 14   100.65 27   LegendNANA
15:00 21.9 17.2 75 0.0 25 14   100.64 27   LegendNANA
16:00 20.6 14.2 67 0.0 27 15   100.63     LegendNANA
17:00 22.0 17.5 76 0.0 25 10   100.63 28   LegendNANA
18:00 22.1 17.2 74 0.0 24 9   100.65 28   LegendNANA
19:00 20.5 16.9 80 0.0 24 10   100.66 26   LegendNANA
20:00 19.1 16.7 86 0.0 22 10   100.71     LegendNANA
21:00 18.6 16.4 87 0.0 25 6   100.81     LegendNANA
22:00 16.7 15.0 90 0.0 29 5   100.84     LegendNANA
23:00 16.5 15.6 94 0.0 22 6   100.83     LegendNANA

Notes on Data Quality.

Legend

  • E = Estimated
  • M = Missing
  • NA = Not Available*
  • [empty] = Indicates an unobserved value
Date modified: